Weather History for Veracruz Airport, Mexico

Change the Weather History Date:

Thursday, May 16, 2013

  Actual Average Record
Temperature  
Mean Temperature 80 °F -  
Max Temperature 89 °F 89 °F 96 °F (1999)
Min Temperature 71 °F 74 °F 68 °F (2014)
Cooling Degree Days 15    
Growing Degree Days 30 (Base 50)    
Moisture  
Dew Point 71 °F    
Average Humidity 72    
Maximum Humidity 94    
Minimum Humidity 49    
Precipitation  
Precipitation 0.00 in - - ()
Sea Level Pressure  
Sea Level Pressure 29.84 in    
Wind  
Wind Speed 5 mph ()    
Max Wind Speed 16 mph    
Max Gust Speed -    
Visibility 5.7 miles    
Events      
Averages and records for this station are not official NWS values.
T = Trace of Precipitation, MM = Missing Value Source: Averaged Metar Reports

Daily Weather History Graph

Daily Weather History Graph

Search for Another Location

Airport:

Trip Planner

Search our weather history database for the weather conditions in past years. The results will help you decide how hot, cold, wet, or windy it might be!

Date:

Astronomy

May. 16, 2013 Rise Set
Actual Time 6:49 AM CDT 7:52 PM CDT
Civil Twilight 6:26 AM CDT 8:16 PM CDT
Nautical Twilight 5:58 AM CDT 8:44 PM CDT
Astronomical Twilight 5:29 AM CDT 9:12 PM CDT
Moon 12:09 PM CDT (5/16) 12:26 AM CDT (5/16)
Length of Visible Light 13h 50m
Length of Day
13h 03m
Waxing Crescent, 36% of the Moon is Illuminated
May 16
Waxing Crescent
May 17
First Quarter
May 24
Full
May 31
Last Quarter
Jun 8
New

Hourly Weather History & Observations

Time (CDT) Temp. Heat Index Dew Point Humidity Pressure Visibility Wind Dir Wind Speed Gust Speed Precip Events Conditions
5:11 AM 71.6 °F - 68.0 °F 88% 29.89 in 6.0 mi Calm Calm - N/A   Clear
5:46 AM 71.6 °F - 68.0 °F 88% 29.89 in 6.0 mi Calm Calm - N/A   Clear
6:44 AM 71.6 °F - 69.8 °F 94% 29.88 in 6.0 mi Calm Calm - N/A   Clear
7:45 AM 71.6 °F - 69.8 °F 94% 29.91 in 5.0 mi South 4.6 mph - N/A   Clear
8:43 AM 75.2 °F - 71.6 °F 89% 29.91 in 5.0 mi South 5.8 mph - N/A   Clear
9:43 AM 80.6 °F 84.6 °F 71.6 °F 74% 29.89 in 6.0 mi SSE 8.1 mph - N/A   Clear
10:50 AM 84.2 °F 88.4 °F 69.8 °F 62% 29.89 in 6.0 mi SE 9.2 mph - N/A   Clear
11:42 AM 87.8 °F 92.6 °F 69.8 °F 55% 29.87 in 6.0 mi South 9.2 mph - N/A   Scattered Clouds
12:44 PM 89.6 °F 96.2 °F 71.6 °F 55% 29.84 in 6.0 mi ESE 8.1 mph - N/A   Scattered Clouds
1:42 PM 89.6 °F 94.7 °F 69.8 °F 52% 29.86 in 6.0 mi ESE 11.5 mph - N/A   Scattered Clouds
2:43 PM 89.6 °F 94.7 °F 69.8 °F 52% 29.83 in 6.0 mi ESE 11.5 mph - N/A   Scattered Clouds
3:46 PM 89.6 °F 93.4 °F 68.0 °F 49% 29.79 in 5.0 mi East 16.1 mph - N/A   Scattered Clouds
4:48 PM 87.8 °F 91.4 °F 68.0 °F 52% 29.77 in 6.0 mi ESE 15.0 mph - N/A   Clear
5:42 PM 86.0 °F 90.4 °F 69.8 °F 58% 29.76 in 6.0 mi East 16.1 mph - N/A   Clear
6:46 PM 82.4 °F 87.2 °F 71.6 °F 70% 29.71 in 5.0 mi East 11.5 mph - N/A   Scattered Clouds
7:46 PM 80.6 °F 85.4 °F 73.4 °F 79% 29.80 in 4.0 mi East 5.8 mph - N/A   Scattered Clouds
8:46 PM 78.8 °F - 73.4 °F 83% 29.83 in 6.0 mi East 3.5 mph - N/A   Partly Cloudy
9:54 PM 78.8 °F - 73.4 °F 83% 29.77 in 6.0 mi Calm Calm - N/A   Partly Cloudy
10:45 PM 78.8 °F - 73.4 °F 83% 29.87 in 6.0 mi Calm Calm - N/A   Clear